Theta_e
319 321 321 313 311 308 307 306 306 306 305 304 303 303 302 302 302 303 304 304 305 304 303 303 303 303 301 301 301 301 302 302 305 305 305 306 306 307 304 300 300 300 301
317 318 319 320 310 308 307 306 305 305 306 305 305 303 303 302 303 303 303 305 305 305 303 302 302 302 301 300 300 301 299 298 299 301 301 299 303 305 306 300 300 298 300
315 316 317 319 318 308 306 307 306 305 305 305 305 304 304 302 301 301 301 302 304 305 303 302 301 300 301 299 298 300 299 297 298 299 300 295 295 297 300 301 299 298 298
314 316 317 318 319 317 310 310 307 306 306 306 305 304 303 300 300 300 301 302 303 303 303 301 301 301 301 300 300 301 299 299 296 296 298 295 297 294 293 299 300 299 299
314 315 316 318 320 321 320 311 310 307 308 307 307 305 301 301 301 301 300 300 301 302 302 301 301 300 300 299 299 298 298 299 297 296 295 294 293 293 292 291 294 297 296
314 316 318 318 319 320 321 318 309 308 308 308 306 305 303 302 301 300 299 300 300 300 301 302 300 300 298 298 298 297 297 296 296 294 294 294 293 291 290 289 288 289 290
308 310 311 312 314 314 316 318 314 309 307 307 308 307 305 304 303 302 301 299 299 298 299 299 298 298 298 298 298 297 296 295 294 293 293 294 293 293 291 289 286 284 285
303 308 309 311 313 313 314 317 314 310 308 307 307 308 307 306 305 303 302 301 301 301 299 299 299 299 298 298 297 297 296 295 295 293 293 292 290 289 289 288 284 281 282
297 301 309 310 310 311 313 317 317 314 309 307 307 308 308 307 305 303 302 301 301 301 301 300 300 299 299 299 298 297 296 295 292 290 289 289 288 288 288 288 286 283 279
296 297 300 302 308 311 313 315 317 315 311 309 307 308 308 308 306 304 302 302 302 302 301 300 299 298 298 298 296 295 293 291 290 289 287 288 288 287 287 287 286 285 283
296 297 299 300 302 302 304 312 316 316 315 310 308 308 308 308 307 305 304 303 302 302 301 299 298 297 296 295 293 291 290 289 288 288 288 287 287 286 285 285 285 284 283
295 297 299 300 301 302 303 303 307 315 316 314 310 308 309 308 306 306 303 303 301 302 300 298 297 296 294 291 290 289 289 287 287 286 286 286 287 284 285 283 283 282 282
292 294 297 298 300 300 301 302 304 310 314 311 309 308 307 307 306 304 302 302 301 299 298 297 295 293 292 290 289 288 287 286 286 286 285 284 284 283 283 282 281 283 284
290 290 291 295 298 300 300 301 302 305 310 308 307 306 306 306 304 303 302 301 300 297 296 295 293 292 291 290 288 287 286 285 285 286 285 284 283 283 282 283 282 283 281
290 290 290 293 296 298 299 300 299 300 302 304 305 305 305 305 303 301 301 299 298 296 295 293 291 290 289 289 287 287 286 284 284 285 285 285 286 288 286 285 283 282 281
290 291 292 294 297 297 298 297 295 296 298 299 300 301 301 301 301 300 298 297 294 292 291 290 289 288 289 292 292 288 286 285 284 284 284 285 288 288 289 289 289 287 282
291 291 291 293 297 297 297 294 294 295 297 298 298 299 298 298 296 295 294 292 290 290 289 288 288 287 289 293 293 292 286 285 284 284 284 284 285 286 284 286 288 287 289
292 292 292 292 297 297 295 293 292 292 295 295 295 296 295 294 293 293 291 290 289 288 287 286 285 286 288 292 292 291 285 284 284 285 284 283 283 283 284 283 283 283 283
292 292 293 294 296 296 295 292 290 290 290 291 293 293 293 291 290 288 287 287 286 286 285 285 284 285 287 291 291 287 284 283 283 284 284 283 283 286 288 284 283 282 282
292 292 293 294 296 294 293 292 291 289 289 290 292 292 291 289 288 287 286 286 286 285 285 284 284 286 284 290 289 286 283 282 283 283 283 287 285 288 288 284 282 280 280
292 292 292 292 294 295 292 291 291 290 292 293 292 290 289 288 288 287 287 286 285 284 283 282 282 283 284 286 288 288 284 283 282 282 281 282 286 287 287 287 282 282 285
292 292 291 291 293 295 293 291 291 293 293 292 290 290 289 289 288 286 285 285 283 282 281 280 279 281 283 287 288 288 286 286 283 281 281 281 285 286 286 285 287 287 285
291 291 290 290 291 293 294 291 292 289 289 290 289 288 287 286 285 284 283 282 282 280 279 279 279 280 282 283 287 288 287 287 283 282 283 286 285 285 284 285 286 283 278
292 292 291 290 290 292 293 294 289 289 287 286 285 285 283 283 283 283 283 282 281 280 279 279 279 280 280 281 282 283 283 285 283 284 282 284 284 284 283 280 279 279 278
291 292 291 291 290 290 290 288 286 286 285 284 283 283 283 282 282 282 282 283 284 284 281 280 281 280 279 281 283 283 281 280 282 282 281 279 279 278 277 277 277 277 277
289 291 291 289 289 288 288 286 285 285 284 283 282 283 283 282 282 283 282 287 285 286 285 285 283 283 285 287 286 285 285 285 285 279 278 278 277 276 276 276 276 276 277
Wind_Speed
9 2 5 11 14 13 12 10 9 7 6 4 4 4 4 3 2 4 7 6 6 6 6 4 5 4 5 4 4 3 5 3 2 4 3 3 2 4 4 4 4 5 4
9 8 6 4 11 13 13 11 9 7 6 4 3 4 3 1 3 3 4 5 6 6 6 6 5 5 4 4 4 4 3 2 1 4 3 2 3 1 3 4 4 6 4
15 14 12 5 4 12 13 14 12 8 6 7 4 4 4 3 2 2 3 5 6 6 7 6 5 5 4 5 3 4 4 3 1 2 4 3 4 2 1 3 4 5 3
11 14 14 15 8 9 11 12 11 12 8 8 6 7 8 6 4 4 3 4 7 6 6 7 6 6 5 5 4 4 3 4 4 1 2 3 4 3 1 1 2 4 3
14 12 16 18 18 11 10 14 13 12 12 12 11 9 6 4 3 3 6 4 5 7 7 7 7 6 5 5 7 4 5 3 4 3 2 2 3 3 3 2 2 2 1
12 12 11 10 12 10 10 11 15 16 14 14 13 14 12 9 6 6 6 5 3 4 6 6 6 7 6 6 6 5 6 5 5 3 3 3 3 2 3 3 1 1 2
6 9 12 13 12 11 10 9 14 15 16 19 16 15 13 12 12 11 9 8 6 4 7 7 6 5 6 6 6 6 6 5 6 5 4 3 3 3 3 3 1 0 2
4 7 9 6 8 10 11 9 12 14 17 15 15 15 14 9 9 11 9 9 8 7 6 6 7 8 8 7 7 6 5 6 5 6 5 4 4 4 2 4 3 1 2
3 6 8 8 7 7 8 10 11 13 13 15 12 15 14 13 12 12 10 9 7 5 7 6 6 6 6 7 7 5 7 7 5 5 5 4 3 4 3 3 3 5 1
4 4 5 7 7 9 9 10 10 14 16 16 14 13 14 16 14 12 13 13 10 11 10 9 9 7 6 7 6 5 7 8 4 4 6 4 3 4 3 2 2 3 4
8 7 7 6 6 5 6 8 11 12 13 14 15 15 14 13 14 13 13 13 13 13 13 12 11 10 8 7 8 6 8 7 7 5 6 5 5 4 3 2 1 2 3
9 8 7 6 5 6 5 6 7 12 13 13 13 14 11 12 13 13 13 13 12 11 11 11 11 10 8 8 10 7 7 7 7 6 6 6 5 4 2 2 1 0 1
7 7 6 7 7 7 6 6 6 7 9 10 12 13 15 13 14 13 14 14 15 13 12 11 10 11 8 5 5 7 8 7 7 6 6 6 6 4 2 1 1 1 2
5 5 6 7 7 7 6 6 6 6 6 9 11 12 12 13 12 13 14 15 16 16 16 14 10 11 10 8 7 6 7 7 6 6 6 6 5 5 4 1 2 1 2
6 5 5 6 5 5 5 5 2 3 4 6 8 9 10 11 11 12 14 14 15 13 12 13 15 12 10 8 8 7 7 7 7 6 5 5 6 7 6 2 3 3 3
6 6 7 6 5 6 5 3 2 2 3 4 7 8 10 10 12 13 14 13 14 13 14 12 13 14 10 18 16 9 6 6 6 6 5 4 5 4 4 6 5 5 4
6 6 6 7 7 7 6 6 6 4 4 5 5 8 10 10 11 12 13 13 13 14 14 12 12 9 7 18 17 13 5 5 5 5 5 3 2 5 2 4 5 4 8
6 7 5 5 7 5 5 5 5 5 5 6 8 9 10 11 11 12 12 12 13 12 12 12 11 10 8 16 14 13 6 5 5 5 5 4 3 4 4 5 4 4 4
6 6 6 6 6 7 7 7 6 6 6 7 8 10 11 13 14 13 13 12 11 10 10 10 11 10 10 17 14 10 5 5 5 5 5 5 5 7 7 4 3 4 4
8 8 8 6 5 6 6 8 9 8 9 9 10 10 11 12 13 15 15 13 13 13 10 9 8 11 9 15 15 9 4 5 4 3 3 2 2 5 5 2 2 4 5
10 7 7 7 8 6 7 8 8 13 11 10 10 11 11 13 13 14 12 14 13 11 11 11 9 9 9 9 14 14 5 4 4 3 2 0 2 3 6 8 4 5 5
10 9 7 8 8 6 9 10 12 9 10 11 13 13 13 11 11 15 13 14 15 14 12 10 6 5 7 13 15 14 10 8 4 3 3 1 3 4 8 8 11 12 8
14 9 7 9 8 8 10 11 11 9 11 12 12 12 13 13 14 15 15 13 13 11 10 9 8 7 6 6 15 13 10 8 4 3 3 5 2 7 7 8 7 8 3
17 17 15 12 12 9 9 13 9 11 13 12 12 9 8 9 12 10 10 11 10 10 9 8 7 7 6 5 4 4 4 6 3 3 0 2 3 6 3 2 3 2 2
18 18 16 16 13 9 8 6 9 12 12 12 12 12 10 8 7 7 8 9 6 9 8 7 7 8 6 5 9 8 4 3 3 3 2 1 1 1 1 1 2 2 2
19 18 18 14 12 8 8 9 11 14 15 13 11 12 11 10 9 9 7 11 14 15 12 13 9 5 10 15 13 8 5 4 5 2 2 2 2 2 1 1 2 2 4
Wind_Direction
142 132 353 153 152 156 160 162 161 170 156 151 144 140 145 149 130 158 156 157 146 142 140 143 141 146 144 160 144 111 116 70 114 98 51 34 99 134 153 148 141 134 135
130 154 183 329 167 165 166 164 173 170 168 149 133 128 134 152 142 152 153 157 151 146 145 151 155 157 135 144 144 134 114 106 133 130 106 137 332 342 163 158 156 159 156
163 167 165 160 245 173 176 175 174 165 169 153 125 92 77 58 77 153 141 164 152 153 148 157 148 144 134 149 146 141 128 137 11 105 145 114 211 134 330 189 178 171 170
177 174 165 168 215 186 180 173 174 168 166 164 162 168 173 168 191 173 159 160 153 147 153 153 151 152 146 148 151 148 141 133 152 55 62 87 146 157 184 316 223 194 185
172 182 185 183 191 187 168 167 175 176 177 178 179 176 175 156 143 141 156 167 166 158 161 156 147 143 140 138 136 133 134 147 140 153 147 81 47 63 120 189 274 8 27
179 184 179 184 194 189 194 182 170 177 184 185 180 186 184 168 154 166 176 184 172 169 169 158 154 145 147 143 143 139 126 126 109 112 102 134 142 155 111 98 349 182 310
184 187 189 191 194 196 194 198 195 184 193 186 185 189 186 179 179 176 182 178 180 188 179 161 159 152 151 139 133 127 125 129 122 128 109 97 97 116 107 102 113 90 319
175 218 223 217 202 195 195 194 197 191 188 201 198 186 184 188 188 183 179 185 190 188 169 162 157 157 155 142 135 129 113 101 96 102 96 103 94 87 102 124 134 44 318
200 174 207 213 211 219 210 210 205 204 191 200 207 190 184 186 187 184 182 181 167 172 165 153 144 143 132 130 130 126 119 123 119 112 107 105 90 88 92 110 125 145 182
246 254 226 223 211 204 202 201 207 201 187 188 195 207 203 187 184 177 182 183 168 166 163 153 146 137 130 133 123 125 118 118 122 117 117 102 103 91 93 110 125 127 152
247 237 232 229 232 236 221 213 205 200 201 193 189 198 196 197 181 183 182 177 164 165 165 158 149 142 133 132 127 141 129 135 127 126 122 124 123 107 93 81 95 131 150
246 239 235 234 241 258 262 253 241 210 206 201 189 197 205 189 181 182 174 160 154 153 155 145 142 136 139 144 135 147 145 142 135 138 132 130 119 115 105 91 75 110 159
262 259 263 248 244 239 240 265 269 247 212 193 190 194 193 193 185 171 155 150 146 139 135 137 139 127 113 132 132 154 154 141 138 148 138 145 130 130 121 120 66 5 342
288 260 266 246 247 249 252 245 265 254 207 185 190 194 191 188 180 165 160 156 154 150 144 135 146 138 138 176 171 160 137 131 141 138 137 141 139 142 127 124 38 8 323
336 316 298 278 264 237 248 285 271 199 173 158 175 188 182 176 164 159 157 153 153 147 140 148 142 141 148 163 165 157 142 139 143 144 156 155 162 162 169 156 218 228 235
322 318 315 293 259 238 234 197 219 178 129 155 154 144 146 152 159 159 153 146 135 140 139 152 144 146 163 174 161 148 143 152 148 153 161 162 141 165 237 250 268 237 205
293 305 292 281 255 224 203 194 180 163 146 142 145 148 150 153 151 148 147 144 143 136 140 144 143 149 153 156 159 153 139 153 152 155 148 156 157 118 185 269 287 309 303
289 297 290 281 260 214 185 161 166 167 159 154 158 157 154 146 145 144 140 137 138 139 142 149 142 154 142 163 150 153 137 140 153 161 162 166 173 211 216 208 232 250 282
291 278 280 276 264 208 178 166 167 163 163 173 169 164 161 151 148 143 139 134 132 136 143 142 138 150 154 159 162 143 142 152 177 176 164 175 200 228 253 218 238 274 263
293 283 287 291 268 234 179 175 180 177 187 180 176 165 160 158 153 146 144 144 144 145 147 152 156 161 151 161 160 141 152 168 159 135 119 102 194 256 276 62 241 268 260
292 284 279 271 267 200 182 197 193 206 192 174 167 166 165 161 156 149 151 150 142 148 167 164 158 150 158 153 162 174 172 157 137 143 147 116 358 345 318 305 267 243 286
310 293 269 265 267 228 191 203 210 195 178 174 169 172 171 167 163 161 157 158 157 157 152 143 137 140 147 172 177 174 162 153 142 159 173 181 290 312 321 307 307 313 347
295 280 246 257 257 234 201 209 212 166 170 173 177 179 176 169 165 159 158 155 155 151 152 149 151 156 170 175 172 169 164 164 156 176 193 241 297 308 309 305 316 4 13
297 296 289 271 258 240 226 218 176 172 166 167 157 155 158 163 158 152 155 150 153 150 150 155 146 164 163 162 164 160 156 158 142 170 13 224 282 314 305 14 20 30 4
295 291 287 274 251 243 222 190 171 163 164 159 149 152 162 154 148 137 143 139 119 141 148 165 162 156 163 178 165 153 153 158 187 182 149 157 266 246 273 21 8 328 310
296 291 284 270 253 230 210 179 170 167 158 159 163 168 162 154 149 146 119 124 147 157 171 154 141 148 152 153 157 163 168 198 224 105 164 204 212 215 209 298 268 264 317